This demonstration page uses our WeatherBlox Daily Observations layout. Learn more.

Left ArrowRight Arrow

Hourly Observations for March 20, 2015

Temp ( °F °C ) Dew Point ( °F °C ) Humidity (%) Winds ( mph kmh ) Pressure ( in mb ) Visibility ( mi km ) Precip ( " mm )
12:53 am 00:53 Clear 54 12.2 42 5.6 64 64 Calm 30.02 1017 10 16 0.00 0.00
1:53 am 01:53 Clear 51 10.6 43 6.1 74 74 Calm 30.02 1017 10 16 0.00 0.00
2:53 am 02:53 Clear 50 10 43 6.1 77 77 Calm 30.02 1017 10 16 0.00 0.00
3:53 am 03:53 Clear 50 10 43 6.1 77 77 NNW 3 6 30.02 1017 10 16 0.00 0.00
4:53 am 04:53 Clear 49 9.4 43 6.1 80 80 Calm 30.02 1017 10 16 0.00 0.00
5:53 am 05:53 Clear 49 9.4 43 6.1 80 80 Calm 30.03 1017 10 16 0.00 0.00
6:53 am 06:53 Clear 49 9.4 43 6.1 80 80 Calm 30.04 1017 10 16 0.00 0.00
7:53 am 07:53 Sunny 48 8.9 44 6.7 86 86 E 5 7 30.05 1018 10 16 0.00 0.00
8:53 am 08:53 Sunny 52 11.1 45 7.2 77 77 Calm 30.07 1018 10 16 0.00 0.00
9:53 am 09:53 Sunny 57 13.9 45 7.2 64 64 N 6 9 30.07 1018 10 16 0.00 0.00
10:53 am 10:53 Sunny 59 15 48 8.9 67 67 WSW 5 7 30.08 1019 10 16 0.00 0.00
11:53 am 11:53 Sunny 63 17.2 46 7.8 54 54 WNW 3 6 30.08 1019 10 16 0.00 0.00
12:53 pm 12:53 Sunny 66 18.9 47 8.3 50 50 S 3 6 30.07 1018 10 16 0.00 0.00
1:53 pm 13:53 Sunny 70 21.1 46 7.8 42 42 Calm 30.06 1018 10 16 0.00 0.00
2:53 pm 14:53 Sunny 72 22.2 45 7.2 38 38 S 10 17 30.05 1018 10 16 0.00 0.00
3:53 pm 15:53 Sunny 71 21.7 44 6.7 38 38 S 7 11 30.04 1017 10 16 0.00 0.00
4:53 pm 16:53 Sunny 69 20.6 45 7.2 42 42 SSW 7 11 30.03 1017 10 16 0.00 0.00
5:53 pm 17:53 Sunny 68 20 47 8.3 47 47 SW 6 9 30.03 1017 10 16 0.00 0.00
6:53 pm 18:53 Sunny 66 18.9 48 8.9 52 52 S 3 6 30.02 1017 10 16 0.00 0.00
7:53 pm 19:53 Clear 63 17.2 50 10 63 63 SSE 3 6 30.04 1017 10 16 0.00 0.00
8:53 pm 20:53 Mostly Cloudy 63 17.2 51 10.6 65 65 Calm 30.04 1017 10 16 0.00 0.00
9:53 pm 21:53 Mostly Cloudy 61 16.1 52 11.1 72 72 Calm 30.05 1018 10 16 0.00 0.00
10:53 pm 22:53 Clear 59 15 51 10.6 75 75 SSE 3 6 30.06 1018 10 16 0.00 0.00
11:53 pm 23:53 Mostly Clear 61 16.1 50 10 67 67 SSW 5 7 30.06 1018 10 16 0.00 0.00

Powered by AerisWeather